This is the latest recevied weather packets stored in our database for station/object KB2EAR-13. If no packets are shown the sender has not sent any weather packets the latest 10 day(s).
| Time | Temp. | Humidity | Pressure | Rain* | Wind** | Luminosity | Snow |
|---|---|---|---|---|---|---|---|
| 1777388717 | 16.67° C | 50% | 1022.6 hPa | 0 mm | - | - | - |
| 1777388464 | 16.11° C | 52% | 1022.6 hPa | 0 mm | - | - | - |
| 1777388417 | 16.67° C | 53% | 1022.6 hPa | 0 mm | - | - | - |
| 1777388138 | 15.56° C | 54% | 1022.5 hPa | 0 mm | - | - | - |
| 1777388117 | 16.11° C | 51% | 1022.6 hPa | 0 mm | - | - | - |
| 1777387817 | 16.11° C | 52% | 1022.6 hPa | 0 mm | - | - | - |
| 1777387517 | 15.56° C | 54% | 1022.5 hPa | 0 mm | - | - | - |
| 1777387217 | 15.56° C | 54% | 1022.6 hPa | 0 mm | - | - | - |
| 1777386917 | 15.56° C | 53% | 1022.7 hPa | 0 mm | - | - | - |
| 1777386617 | 15.56° C | 51% | 1022.7 hPa | 0 mm | - | - | - |
| 1777386317 | 15.56° C | 53% | 1022.8 hPa | 0 mm | - | - | - |
| 1777386017 | 15.56° C | 52% | 1022.8 hPa | 0 mm | - | - | - |
| 1777385717 | 15.56° C | 53% | 1022.7 hPa | 0 mm | - | - | - |
| 1777385417 | 15° C | 55% | 1022.7 hPa | 0 mm | - | - | - |
| 1777385117 | 15° C | 54% | 1022.7 hPa | 0 mm | - | - | - |
| 1777384817 | 15° C | 54% | 1022.7 hPa | 0 mm | - | - | - |
| 1777384517 | 15° C | 56% | 1022.8 hPa | 0 mm | - | - | - |
| 1777384217 | 15° C | 56% | 1022.9 hPa | 0 mm | - | - | - |
| 1777383917 | 15° C | 60% | 1022.8 hPa | 0 mm | - | - | - |
| 1777383617 | 15° C | 59% | 1022.8 hPa | 0 mm | - | - | - |
| 1777383317 | 14.44° C | 59% | 1022.8 hPa | 0 mm | - | - | - |
| 1777383017 | 14.44° C | 58% | 1022.8 hPa | 0 mm | - | - | - |
| 1777382717 | 14.44° C | 58% | 1022.7 hPa | 0 mm | - | - | - |
| 1777382417 | 15° C | 57% | 1022.7 hPa | 0 mm | - | - | - |
| 1777382117 | 15° C | 56% | 1022.9 hPa | 0 mm | - | - | - |
* Rain latest hour (hover to see other rain measurements)
** Current wind speed in m/s (hover to see current wind gust speed)